Regional Weather Roundup
Issued by NWS

Home | Current Version | Previous Version | Graphics & Text | Print | Product List | Glossary On
Versions: 1 2 3 4 5 6 7 8 9 10 11 12 13 14 15 16 17 18 19 20 21 22 23 24 25 26 27 28 29 30 31 32 33 34 35 36 37 38 39 40 41 42 43 44 45 46 47 48 49 50
000
ASUS45 KSLC 060510
RWRUT

UTAH REGIONAL WEATHER ROUNDUP
NATIONAL WEATHER SERVICE SALT LAKE CITY UT
1000 PM MST THU MAR 05 2015

UTZ001>011-023>025-060600-

NORTHERN UTAH

CITY           SKY/WX    TMP DP  RH WIND       PRES   REMARKS
BRIGHAM CITY   CLEAR     34  24  67 CALM      30.43S
HILL AFB       CLEAR     35  15  44 E10       30.42R WCI  27
LOGAN          CLEAR     32  23  69 S5        30.42S WCI  27
OGDEN          CLEAR     34  21  59 S9        30.41S WCI  27
PROVO AIRPORT  CLEAR     32  21  64 CALM      30.44S
SALT LAKE CITY PTCLDY    37  22  54 SE8       30.42S WCI  31
VERNAL         PTCLDY    28  19  69 W6        30.41R WCI  22
WENDOVER       CLEAR     34  21  60 CALM      30.40S
HEBER CITY     CLEAR     27  19  74 SE3       30.43S
WEST JORDAN    CLEAR     32  25  74 S6        30.43S WCI  26

$$

UTZ012>022-026-027-060600-

SOUTHERN/CENTRAL UTAH

CITY           SKY/WX    TMP DP  RH WIND       PRES   REMARKS
BLANDING       CLEAR     30  25  81 N6        30.47R WCI  24
BRYCE CANYON   PTCLDY     8   1  73 CALM      30.43R
CEDAR CITY     CLEAR     24  18  77 NW3       30.40R
DELTA          CLEAR     33  25  73 E5        30.43S WCI  28
HANKSVILLE     CLEAR     34  23  64 CALM      30.43R
MILFORD        CLEAR     28  23  81 SE5       30.42R WCI  23
MOAB/CYNLANDS  CLEAR     30  19  63 CALM      30.40R
PRICE          CLEAR     29  19  66 N8        30.40R WCI  21
ST GEORGE      CLEAR     45  28  53 SE7       30.37S
KANAB          CLEAR     36  19  51 NW15      30.41S WCI  26

$$

REGIONAL REPORTS     COLORADO/ARIZONA

CITY           SKY/WX    TMP DP  RH WIND       PRES   REMARKS
CRAIG, CO      NOT AVBL
GRAND JUNCTION PTCLDY    29  20  69 NE5       30.42R WCI  24
RIFLE          CLEAR     28  19  69 SE5       30.43R WCI  23
MONTROSE       PTCLDY    29  19  66 SE8       30.45R WCI  21
CORTEZ         CLEAR     27  21  78 NE8       30.41R WCI  19
PAGE, AZ       CLEAR     41  23  48 W3        30.38R
GRAND CANYON   CLEAR     20  15  81 CALM      30.40R
KINGMAN        CLEAR     43  29  57 E12       30.32R
FLAGSTAFF      CLEAR     24  14  65 CALM      30.39R

$$

REGIONAL REPORTS    NEVADA/IDAHO/WYOMING

CITY           SKY/WX    TMP DP  RH WIND       PRES   REMARKS
LAS VEGAS, NV  CLEAR     55  31  39 S7        30.29R
ELY            CLEAR     27  21  78 S9        30.42R WCI  18
ELKO           CLEAR     30  14  51 CALM      30.40R
POCATELLO, ID  CLEAR     40  18  41 S12       30.36R WCI  33
BURLEY         MOCLDY    37  15  40 SW13      30.34R WCI  29
EVANSTON, WY   PTCLDY    23  13  65 SW10      30.40R WCI  12
ROCK SPRINGS   MOCLDY    28  16  60 S15       30.34  WCI  16

$$



USA.gov is the U.S. government's official web portal to all federal, state and local government web resources and services.